This demonstration page uses our WeatherBlox Daily Observations layout. Learn more.

Left ArrowRight Arrow

Hourly Observations for May 7, 2015

Temp ( °F °C ) Dew Point ( °F °C ) Humidity (%) Winds ( mph kmh ) Pressure ( in mb ) Visibility ( mi km ) Precip ( " mm )
12:53 am 00:53 Clear 60 15.6 56 13.3 86 86 Calm 30.12 1020 9 14 0.00 0.00
1:53 am 01:53 Clear 59 15 56 13.3 90 90 Calm 30.11 1020 9 14 0.00 0.00
2:53 am 02:53 Clear with Mist and Fog 58 14.4 56 13.3 93 93 Calm 30.10 1019 6 10 0.00 0.00
3:53 am 03:53 Clear with Mist and Fog 57 13.9 55 12.8 93 93 Calm 30.10 1019 5 8 0.00 0.00
4:53 am 04:53 Clear with Mist and Fog 57 13.9 55 12.8 93 93 Calm 30.10 1019 6 10 0.00 0.00
5:53 am 05:53 Clear with Mist and Fog 55 12.8 54 12.2 96 96 Calm 30.10 1019 5 8 0.00 0.00
6:53 am 06:53 Sunny with Mist and Fog 56 13.3 54 12.2 93 93 Calm 30.11 1020 4 6 0.00 0.00
7:53 am 07:53 Sunny with Mist and Fog 62 16.7 58 14.4 86 86 Calm 30.12 1020 5 8 0.00 0.00
8:53 am 08:53 Sunny 70 21.1 60 15.6 71 71 Calm 30.13 1020 9 14 0.00 0.00
9:53 am 09:53 Sunny 76 24.4 59 15 56 56 E 5 7 30.13 1020 10 16 0.00 0.00
10:53 am 10:53 Sunny 80 26.7 59 15 49 49 ESE 5 7 30.12 1020 10 16 0.00 0.00
11:53 am 11:53 Sunny 84 28.9 59 15 43 43 Calm 30.11 1020 10 16 0.00 0.00
12:53 pm 12:53 Sunny 86 30 55 12.8 35 35 VRB 7 11 30.10 1019 10 16 0.00 0.00
1:53 pm 13:53 Mostly Sunny 88 31.1 55 12.8 33 33 SE 6 9 30.08 1019 10 16 0.00 0.00
2:53 pm 14:53 Partly Cloudy 85 29.4 55 12.8 36 36 VRB 6 9 30.07 1018 10 16 0.00 0.00
3:32 pm 15:32 Mostly Cloudy with Thunderstorms 78 25.6 60 15.6 54 54 W 8 13 30.06 1018 9 14 0.00 0.03
3:46 pm 15:46 Cloudy with Light Rain 76 24.4 63 17.2 64 64 WNW 9 15 30.06 1018 10 16 0.00 0.03
3:53 pm 15:53 Cloudy with Light Rain 75 23.9 63 17.2 66 66 NW 13 20 30.06 1018 10 16 0.00 0.03
4:53 pm 16:53 Mostly Sunny 86 30 62 16.7 45 45 Calm 30.04 1017 10 16 0.00 0.03
5:53 pm 17:53 Sunny 82 27.8 58 14.4 44 44 E 9 15 30.03 1017 10 16 0.00 0.00
6:53 pm 18:53 Sunny 84 28.9 59 15 43 43 Calm 30.02 1017 10 16 0.00 0.00
7:53 pm 19:53 Sunny 80 26.7 63 17.2 56 56 Calm 30.01 1016 10 16 0.00 0.00
8:53 pm 20:53 Clear 71 21.7 62 16.7 73 73 Calm 30.01 1016 10 16 0.00 0.00
9:53 pm 21:53 Clear 67 19.4 61 16.1 81 81 Calm 30.01 1016 10 16 0.00 0.00
10:53 pm 22:53 Clear 65 18.3 61 16.1 87 87 Calm 30.03 1017 10 16 0.00 0.00
11:53 pm 23:53 Clear 64 17.8 60 15.6 87 87 Calm 30.03 1017 9 14 0.00 0.00

Powered by AerisWeather